Overview Statistics Trail Chart Weather Telemetry Raw packets
 

This is the latest recevied weather packets stored in our database for station/object KD7AWQ. If no packets are shown the sender has not sent any weather packets the latest 10 day(s).

<< 76 77 78 79 80 81 82 >>
Time Temp. Humidity Pressure Rain* Wind** Luminosity Snow
1787883077 33.33° C 20% 1186.2 hPa 0 mm - 0 W/m² -
1787882773 33.89° C 19% 1186.3 hPa 0 mm - 0 W/m² -
1787882470 33.89° C 19% 1186.4 hPa 0 mm - 0 W/m² -
1787882165 33.89° C 19% 1186.3 hPa 0 mm - 1 W/m² -
1787881858 33.89° C 19% 1185.8 hPa 0 mm - 2 W/m² -
1787881554 33.89° C 19% 1185.6 hPa 0 mm - 3 W/m² -
1787881250 33.89° C 19% 1185.6 hPa 0 mm - 5 W/m² -
1787880946 33.89° C 19% 1185.7 hPa 0 mm - 7 W/m² -
1787880645 34.44° C 19% 1185.6 hPa 0 mm - 10 W/m² -
1787880343 34.44° C 19% 1185.5 hPa 0 mm - 15 W/m² -
1787880039 34.44° C 19% 1185.6 hPa 0 mm - 21 W/m² -
1787879733 34.44° C 18% 1185.5 hPa 0 mm - 26 W/m² -
1787879428 34.44° C 18% 1185.6 hPa 0 mm - 32 W/m² -
1787879125 35° C 18% 1185.5 hPa 0 mm - 36 W/m² -
1787878821 35° C 18% 1185.7 hPa 0 mm - 39 W/m² -
1787878520 35° C 18% 1185.3 hPa 0 mm - 46 W/m² -
1787878216 35° C 18% 1185.6 hPa 0 mm - 53 W/m² -
1787877911 35° C 18% 1185.5 hPa 0 mm - 63 W/m² -
1787877607 35.56° C 17% 1185.3 hPa 0 mm - 70 W/m² -
1787877302 35.56° C 15% 1185.7 hPa 0 mm - 73 W/m² -
1787877001 35.56° C 15% 1185.6 hPa 0 mm - 75 W/m² -
1787876697 35.56° C 15% 1185.5 hPa 0 mm - 75 W/m² -
1787876392 35.56° C 15% 1185.5 hPa 0 mm - 75 W/m² -
1787876091 35.56° C 15% 1185.2 hPa 0 mm - 72 W/m² -
1787875786 35.56° C 15% 1185.2 hPa 0 mm - 72 W/m² -

* Rain latest hour (hover to see other rain measurements)
** Current wind speed in m/s (hover to see current wind gust speed)